Wetbulb
62.03 62.58 62.29 62.25 62.77 63.29 63.59 63.93 63.93 64.24 63.77 63.81 64.87 65.74 65.36 66.03 67.34 68.12 68.02 67.58 67.34 67.76 68.18 67.39 66.94 68.28 66.89 67.66 66.82 64.37 63.24 63.32 60.77 65.41 67.85 69.32 69.04 69.17 68.87 68.48 68.38 69.75 65.92
59.29 59.94 60.60 61.60 61.67 61.85 61.88 62.25 62.49 62.17 62.55 62.73 62.99 63.14 63.55 64.43 66.40 66.03 65.08 65.13 65.24 65.00 64.60 65.95 65.34 66.10 67.59 68.60 67.51 65.42 63.76 63.81 63.53 64.38 66.70 67.91 67.16 68.38 67.99 67.74 68.62 68.43 68.44
56.54 57.00 58.38 59.04 60.41 61.63 61.70 61.80 61.63 61.56 61.56 61.70 62.02 62.81 63.22 63.54 64.37 65.10 64.58 64.23 64.62 64.64 64.45 64.55 65.32 66.54 66.74 67.67 68.20 67.33 65.35 64.68 64.43 63.23 63.69 65.89 65.98 65.76 66.47 67.60 67.44 67.24 65.48
56.56 57.63 58.08 58.24 58.60 59.54 60.60 60.47 60.26 60.47 60.46 61.05 61.76 61.85 62.68 63.20 63.08 63.33 63.55 63.81 64.03 63.56 64.66 65.59 64.87 65.21 66.21 67.33 68.00 67.79 67.05 65.06 65.51 64.41 64.58 65.24 64.55 64.98 65.16 65.81 64.78 64.75 65.27
54.82 56.07 57.45 59.23 59.44 58.59 58.61 59.34 59.78 60.57 61.09 61.47 61.80 62.45 63.11 63.17 62.80 63.78 63.95 63.92 63.74 63.77 64.40 64.53 64.49 63.41 61.19 62.52 65.90 68.25 68.86 65.99 65.58 65.15 64.54 64.15 62.83 61.99 63.18 65.99 64.84 65.73 65.36
51.97 53.74 54.66 56.06 57.50 57.99 58.26 58.78 59.98 60.67 61.31 61.59 61.90 62.08 62.23 60.50 51.66 52.80 56.98 60.75 60.61 61.66 62.80 63.86 64.10 61.39 61.36 56.12 56.06 56.05 62.82 67.75 67.68 67.26 66.00 64.16 64.09 63.83 64.65 64.92 64.89 62.74 62.33
49.58 50.34 51.30 54.15 54.88 56.13 57.10 57.59 58.97 60.31 61.39 60.99 60.80 60.08 59.96 59.92 49.96 49.35 50.08 59.31 59.67 60.23 61.12 62.38 62.59 61.88 61.65 64.60 59.63 55.58 55.47 53.33 56.72 68.49 67.62 65.27 64.78 65.26 65.43 65.15 64.74 64.32 64.08
50.08 50.47 51.22 51.89 52.42 55.37 56.01 56.87 58.65 59.77 59.27 58.87 58.43 58.57 58.62 58.28 48.36 46.83 47.66 58.09 58.33 58.98 60.02 61.68 62.90 63.74 63.99 63.20 64.89 66.43 68.04 67.59 62.33 62.37 67.71 67.41 66.88 67.88 66.63 66.49 65.87 65.63 64.72
48.93 49.96 50.59 51.07 51.38 52.97 54.74 56.44 57.89 57.57 57.60 57.53 57.52 57.65 57.45 57.77 46.26 45.12 49.55 56.70 56.26 57.22 58.57 60.71 62.60 63.57 55.89 47.89 62.70 65.13 66.12 66.23 55.49 53.15 53.62 51.88 51.88 53.33 60.03 65.20 63.68 63.17 61.69
48.97 49.70 50.69 51.34 51.60 51.98 53.50 54.72 56.54 56.72 56.54 56.29 56.31 56.97 53.78 57.01 46.36 44.13 49.44 54.92 55.30 55.94 58.27 60.71 52.11 58.35 50.22 45.90 60.15 63.66 65.17 65.45 61.09 61.95 62.15 56.48 54.78 55.62 51.30 67.15 65.64 63.06 62.76
49.23 49.55 49.89 50.68 51.09 52.37 54.29 55.12 55.40 54.71 55.30 55.83 55.30 56.23 56.54 55.79 55.85 43.71 43.68 55.02 54.81 55.18 56.09 58.78 60.68 48.25 44.81 43.91 45.17 61.64 64.45 65.57 59.39 65.66 63.52 60.17 61.86 62.03 64.23 66.09 67.17 65.37 63.04
48.18 48.61 49.19 50.49 50.44 50.36 52.76 53.35 54.02 54.14 53.35 54.29 54.14 54.14 55.09 56.40 46.90 44.82 43.22 43.21 49.90 55.98 56.33 59.03 61.19 47.24 44.81 45.54 46.57 47.53 46.99 54.15 65.16 63.25 62.27 60.94 60.55 61.82 64.61 65.89 66.66 66.65 67.24
46.36 47.92 47.96 49.41 49.23 49.73 50.50 51.06 50.53 53.17 51.75 52.06 51.84 52.22 52.73 54.51 55.56 43.82 42.97 42.08 42.86 49.59 56.29 54.83 45.33 45.54 44.45 46.44 42.27 44.09 45.17 63.30 63.61 62.60 61.30 61.50 62.47 64.56 65.62 65.61 66.33 66.69 66.74
44.17 46.05 47.00 46.94 47.80 48.84 49.28 50.06 50.72 51.38 51.15 51.05 51.48 51.47 52.36 53.31 54.11 55.01 55.08 55.01 46.23 48.37 50.53 53.69 52.40 49.69 47.89 53.03 52.01 49.37 62.44 63.86 63.40 63.59 62.56 63.07 64.21 63.72 64.00 64.56 63.62 64.43 64.16
42.68 43.25 45.49 45.98 45.87 47.11 48.88 50.33 50.76 53.46 51.73 51.33 52.12 51.98 51.81 51.93 52.87 49.94 50.87 54.89 55.72 54.61 55.79 57.68 55.92 56.96 56.89 57.48 58.48 58.18 61.56 62.09 62.66 63.07 62.83 62.63 62.55 63.47 62.37 64.35 63.96 63.32 62.78
41.25 42.45 42.92 43.76 44.28 44.89 47.19 49.13 42.92 44.15 43.33 42.62 43.88 49.50 52.72 46.66 43.74 43.07 43.17 41.84 41.55 42.82 54.78 56.95 56.15 58.13 57.39 58.00 58.26 58.00 60.30 58.65 62.73 62.94 63.70 62.71 62.41 62.87 61.81 62.71 62.25 62.66 61.62
40.97 42.35 42.87 42.69 44.10 45.07 47.12 47.45 47.24 45.70 40.73 41.11 40.79 42.41 42.65 45.19 42.04 40.64 40.81 39.56 39.37 41.55 55.22 57.09 56.26 57.10 58.45 59.02 58.49 58.95 58.89 61.26 62.66 63.21 63.03 62.98 63.11 62.58 60.74 60.58 61.98 60.88 61.45
41.91 41.29 42.91 43.52 44.29 45.80 47.03 47.78 48.83 48.85 47.96 49.56 42.26 42.68 39.39 39.72 39.18 39.54 39.56 40.53 52.00 46.11 56.41 55.76 56.67 58.17 59.01 60.76 61.06 60.82 60.92 61.16 61.93 62.11 63.33 63.34 63.25 62.27 60.16 61.27 61.72 61.34 61.74
42.80 44.17 45.32 45.21 45.53 46.35 48.33 48.45 48.34 48.97 49.28 50.33 51.55 43.10 43.89 40.08 39.37 38.21 38.24 49.70 55.35 56.60 55.46 56.08 57.61 59.66 59.02 60.82 62.11 61.82 60.83 61.15 62.63 63.13 62.96 63.12 61.61 59.53 60.63 61.77 61.11 51.28 53.65
44.54 41.79 43.64 47.45 47.59 48.29 48.67 48.62 49.03 50.19 50.01 50.38 50.78 51.77 52.71 45.41 46.42 47.15 46.87 50.12 53.67 56.30 56.91 56.84 58.07 59.21 59.24 60.41 60.27 60.12 60.33 59.46 61.51 61.66 62.70 62.39 60.63 60.10 58.38 57.99 58.94 58.28 59.12
46.42 46.26 43.53 48.13 48.70 48.93 49.36 49.42 50.52 50.15 50.89 49.93 50.98 51.63 42.70 50.48 52.40 52.93 54.02 53.74 54.86 55.85 56.94 58.32 58.46 59.02 60.18 60.87 61.69 61.24 60.57 60.55 60.85 61.74 60.04 60.81 62.89 59.05 60.76 60.47 60.30 61.62 61.19
48.57 48.39 48.36 48.41 49.26 48.85 50.35 50.76 50.95 49.71 48.95 50.69 51.24 50.44 36.46 49.79 53.20 53.32 54.16 55.06 55.39 56.84 59.68 58.84 59.13 60.27 61.52 62.70 63.59 63.83 63.85 63.13 63.61 62.75 63.06 63.33 62.84 60.76 59.43 60.06 61.32 61.57 60.31
49.61 49.15 49.78 49.65 49.60 46.65 50.66 51.08 49.62 49.09 52.19 53.19 52.79 53.76 50.09 50.48 51.04 53.33 53.69 55.09 57.63 59.11 58.94 59.62 60.03 61.26 63.63 64.26 64.92 64.82 63.60 63.53 64.10 64.15 62.99 62.00 60.58 60.64 61.48 60.35 59.94 59.24 59.09
48.51 48.80 49.29 49.94 50.62 51.81 52.55 51.54 51.19 46.32 52.77 54.19 54.83 54.49 55.44 54.96 54.22 55.38 56.90 58.08 57.20 57.96 59.95 60.03 61.86 62.75 63.63 63.98 63.78 64.36 64.81 64.79 64.62 63.18 61.85 62.12 60.67 57.57 61.06 60.29 58.54 53.78 48.85
51.86 49.95 48.77 48.99 49.25 50.54 51.97 52.68 52.52 54.62 54.30 55.09 55.64 54.28 51.80 50.82 50.91 51.91 53.88 55.13 56.32 58.73 60.40 61.86 63.16 63.09 62.61 61.84 62.58 62.73 47.46 42.82 58.77 50.13 58.00 58.19 58.98 60.54 57.50 53.24 48.89 47.92 49.21
49.12 49.69 49.64 50.20 49.98 51.62 51.47 51.52 52.28 53.23 53.90 54.57 53.34 52.81 51.31 49.48 49.78 50.77 52.38 54.62 56.89 58.76 59.87 60.81 60.29 58.25 56.21 54.95 55.84 43.89 38.49 40.10 48.55 44.61 56.65 57.34 56.90 55.67 54.58 52.76 51.36 49.46 48.09
MSLP
1000.07 1000.73 1001.26 1001.77 1002.38 1003.06 1003.35 1003.90 1004.38 1004.95 1005.38 1005.73 1005.96 1006.27 1006.59 1006.98 1007.35 1007.72 1007.98 1008.29 1008.56 1008.86 1009.08 1009.12 1009.10 1009.09 1009.19 1009.50 1009.50 1010.13 1010.36 1010.33 1010.41 1008.65 1008.65 1008.59 1008.85 1008.80 1009.04 1008.98 1008.77 1008.48 1008.90
1000.42 1000.84 1001.24 1001.84 1002.03 1002.62 1003.05 1003.67 1004.23 1004.64 1005.19 1005.48 1005.86 1006.08 1006.35 1006.67 1007.09 1007.27 1007.41 1007.61 1007.84 1008.07 1008.16 1008.38 1008.31 1008.38 1008.78 1008.92 1009.16 1009.15 1009.89 1009.87 1009.93 1009.29 1008.81 1008.63 1008.83 1008.73 1008.84 1008.88 1008.79 1008.67 1008.48
1000.96 1001.42 1001.67 1001.98 1002.03 1002.18 1002.68 1003.37 1003.95 1004.36 1004.90 1005.30 1005.59 1005.79 1006.03 1006.31 1006.64 1006.89 1006.98 1007.08 1007.27 1007.50 1007.67 1007.83 1007.96 1008.14 1008.23 1008.18 1008.61 1008.59 1009.13 1009.34 1008.86 1009.14 1008.17 1008.08 1008.41 1008.70 1008.64 1008.90 1008.74 1008.79 1009.01
1000.64 1000.86 1001.23 1001.67 1001.82 1002.20 1002.57 1003.11 1003.55 1004.04 1004.55 1004.87 1005.10 1005.27 1005.57 1005.87 1006.14 1006.41 1006.66 1006.89 1007.10 1007.23 1007.45 1007.66 1007.68 1007.76 1007.80 1007.77 1007.73 1007.98 1008.29 1008.53 1007.90 1008.21 1007.98 1007.45 1007.77 1008.12 1008.48 1008.18 1008.29 1008.70 1008.51
1000.79 1000.45 1000.57 1000.98 1001.25 1001.82 1002.40 1002.48 1002.92 1003.50 1003.97 1004.42 1004.70 1004.89 1005.22 1005.54 1005.75 1006.11 1006.43 1006.66 1006.88 1007.10 1007.35 1007.41 1007.34 1007.41 1007.47 1007.43 1007.30 1007.20 1007.41 1007.53 1007.16 1007.37 1007.36 1007.49 1007.35 1007.60 1007.83 1007.45 1007.61 1007.94 1008.20
1001.11 1000.68 1000.63 1000.76 1000.87 1001.23 1001.75 1002.19 1002.35 1002.85 1003.40 1003.90 1004.30 1004.45 1004.81 1005.00 1005.77 1006.22 1006.52 1006.54 1006.77 1006.91 1006.86 1006.77 1006.73 1006.78 1006.59 1006.70 1006.65 1006.64 1006.70 1006.74 1006.75 1006.69 1006.29 1006.53 1006.53 1007.12 1007.15 1007.11 1007.21 1007.47 1007.25
1001.10 1001.01 1000.92 1000.78 1000.69 1000.93 1001.27 1001.68 1002.07 1002.35 1002.88 1003.50 1003.95 1004.28 1004.62 1005.01 1005.63 1006.00 1006.39 1006.32 1006.46 1006.52 1006.51 1006.37 1006.16 1005.96 1006.15 1006.03 1005.78 1005.64 1005.82 1005.91 1006.15 1005.63 1005.62 1005.68 1005.76 1006.12 1006.37 1006.70 1006.82 1006.67 1006.73
1000.49 1000.35 1000.42 1000.64 1000.82 1000.65 1000.99 1001.11 1001.61 1002.09 1002.28 1002.99 1003.65 1004.04 1004.47 1004.81 1005.38 1005.66 1006.01 1006.05 1006.01 1006.14 1006.20 1006.12 1005.91 1005.73 1005.54 1005.56 1005.21 1004.78 1004.36 1004.53 1004.83 1005.05 1004.94 1005.07 1005.04 1005.36 1005.95 1006.00 1006.49 1006.58 1007.05
999.99 1000.08 1000.12 1000.61 1000.65 1000.42 1000.63 1000.92 1001.30 1001.69 1002.07 1002.40 1003.00 1003.57 1004.05 1004.48 1005.04 1005.31 1005.60 1005.31 1005.37 1005.63 1005.68 1005.53 1005.35 1005.23 1005.02 1005.06 1005.21 1004.64 1004.17 1004.20 1004.43 1004.49 1004.78 1004.93 1005.02 1005.30 1005.76 1006.21 1006.07 1006.04 1006.15
998.89 999.00 999.30 999.54 999.58 999.44 1000.07 1000.67 1000.85 1001.15 1001.55 1001.86 1002.36 1002.87 1003.32 1003.83 1004.50 1004.87 1005.04 1004.85 1005.05 1005.18 1005.07 1004.90 1004.80 1004.94 1004.70 1004.62 1004.92 1004.54 1003.71 1003.57 1004.34 1004.58 1004.80 1004.85 1005.23 1005.17 1005.79 1005.49 1005.40 1005.39 1005.33
997.83 997.98 998.24 998.50 998.72 998.94 999.39 999.90 1000.35 1000.43 1000.90 1001.32 1001.70 1002.27 1002.80 1003.17 1003.59 1004.23 1004.62 1004.72 1004.65 1004.60 1004.41 1004.07 1003.74 1003.95 1004.18 1004.25 1004.37 1003.98 1003.20 1002.94 1003.69 1003.85 1004.25 1004.70 1004.48 1005.99 1005.72 1005.35 1005.49 1005.30 1005.14
996.45 996.48 996.80 997.37 997.69 998.20 998.62 999.04 999.45 999.85 1000.13 1000.63 1001.10 1001.50 1001.93 1002.53 1003.18 1003.63 1004.03 1004.22 1004.32 1004.41 1004.15 1003.69 1003.38 1003.60 1003.92 1003.81 1003.70 1003.36 1003.24 1003.23 1003.38 1003.83 1004.02 1004.47 1005.05 1005.62 1005.05 1005.33 1005.73 1005.54 1005.61
995.06 995.03 995.53 996.14 996.55 997.21 997.60 997.87 998.32 998.75 999.11 999.55 1000.08 1000.54 1000.56 1001.44 1002.03 1002.99 1003.26 1003.51 1003.99 1004.30 1003.81 1003.56 1003.59 1003.73 1003.67 1003.57 1003.09 1003.14 1003.07 1002.93 1002.93 1003.32 1003.83 1003.93 1004.43 1004.88 1005.05 1005.60 1005.61 1005.81 1006.12
993.51 993.73 994.16 994.76 995.45 996.09 996.58 997.03 997.13 997.42 997.93 998.57 998.94 999.31 999.72 1000.55 1000.82 1001.21 1001.87 1002.42 1002.84 1003.49 1003.50 1003.49 1003.31 1003.32 1003.24 1002.99 1002.85 1003.13 1002.54 1002.48 1002.70 1002.87 1003.38 1003.77 1004.15 1004.85 1004.94 1004.96 1005.21 1005.54 1005.80
992.21 992.80 993.12 993.63 994.48 995.12 995.60 995.80 996.15 996.66 997.16 997.65 997.89 998.63 999.24 999.60 1000.02 1000.73 1001.12 1001.23 1001.46 1001.68 1002.22 1002.29 1002.50 1002.44 1002.34 1002.29 1002.41 1002.48 1002.39 1002.52 1002.76 1002.87 1003.01 1003.32 1004.09 1004.28 1004.60 1004.73 1005.01 1005.37 1005.34
991.22 991.76 992.48 993.08 993.67 994.37 994.93 995.36 996.00 996.60 997.10 997.83 997.90 998.28 998.77 999.04 999.54 1000.39 1001.02 1001.36 1001.73 1002.09 1002.13 1001.54 1001.61 1001.49 1001.38 1001.48 1001.63 1001.82 1001.91 1002.08 1002.24 1002.22 1002.32 1003.02 1003.51 1003.76 1004.30 1004.46 1004.97 1005.04 1005.14
990.77 991.38 991.92 992.48 993.03 993.63 994.10 994.61 995.39 997.10 997.42 997.61 998.08 998.34 998.68 998.70 999.97 1000.50 1000.92 1001.33 1001.39 1001.79 1001.17 1000.79 1000.73 1000.62 1000.41 1000.54 1000.69 1000.97 1001.16 1001.48 1001.56 1001.75 1002.15 1002.53 1002.93 1003.27 1003.96 1004.50 1004.64 1004.97 1004.89
990.74 991.38 991.87 992.33 992.92 993.12 993.34 993.99 994.69 995.43 996.21 997.08 998.02 998.58 998.99 999.22 999.76 1000.08 1000.44 1000.77 1000.87 1001.14 1000.16 1000.02 999.90 999.77 999.63 999.47 999.70 1000.09 1000.54 1001.06 1001.13 1001.62 1001.92 1002.31 1002.77 1003.35 1003.92 1003.95 1004.25 1004.60 1004.76
990.75 990.99 991.45 992.03 992.40 992.74 993.06 993.61 994.25 994.83 995.29 995.74 996.52 997.86 998.10 998.56 999.24 999.86 1000.14 1000.15 999.30 998.90 999.42 999.27 999.05 998.65 998.85 998.79 999.03 999.43 999.98 1000.35 1000.67 1001.24 1001.85 1002.21 1002.91 1003.64 1003.97 1004.12 1004.51 1004.96 1005.42
990.78 991.30 991.60 991.60 991.97 992.39 992.76 993.18 993.65 994.00 994.48 994.99 995.56 996.15 996.89 998.27 998.68 998.96 999.31 999.07 998.75 998.21 998.14 998.24 998.01 997.91 998.18 998.28 998.65 998.97 999.65 1000.17 1000.44 1001.13 1001.64 1002.27 1002.81 1003.44 1004.01 1004.38 1004.73 1005.08 1005.48
990.78 991.12 991.35 991.55 991.89 992.27 992.61 992.97 993.35 993.81 994.18 994.62 995.00 995.45 995.91 996.59 996.57 996.74 996.92 997.36 997.31 997.14 997.24 997.31 997.23 997.44 997.64 997.89 998.27 998.64 999.16 999.66 1000.36 1000.85 1001.47 1001.88 1002.33 1003.34 1003.73 1004.21 1004.59 1004.68 1005.26
990.89 990.98 991.32 991.53 991.89 992.28 992.43 992.71 993.02 993.47 993.93 994.07 994.35 994.93 995.54 996.06 995.86 995.88 995.89 995.91 996.09 996.29 996.34 996.75 996.86 997.03 997.08 996.85 996.85 997.25 997.92 998.76 999.42 1000.23 1000.63 1001.24 1002.05 1003.05 1003.72 1004.11 1004.34 1004.89 1005.77
990.94 991.05 991.16 991.33 991.69 992.23 992.56 992.67 992.93 993.42 993.26 993.23 993.50 993.87 994.91 995.23 995.35 995.29 995.36 995.45 995.38 995.61 996.09 996.30 996.53 996.61 996.08 996.33 996.56 997.15 997.64 998.23 998.90 999.76 1000.58 1001.49 1002.31 1002.85 1003.43 1004.10 1004.64 1005.35 1005.84
991.19 991.23 991.32 991.40 991.60 991.72 991.82 992.15 992.53 992.80 992.71 992.73 992.96 993.48 993.77 994.14 994.41 994.41 994.59 994.73 995.05 995.36 995.59 995.89 995.66 995.57 996.01 996.52 997.18 997.37 997.87 998.56 999.29 1000.35 1000.90 1001.25 1002.20 1002.99 1003.40 1004.16 1004.99 1006.07 1007.03
990.38 990.78 991.11 991.21 991.28 991.43 991.68 991.96 992.17 992.25 992.44 992.62 992.90 993.50 993.98 994.09 994.26 994.39 994.39 994.64 994.87 995.14 995.25 995.39 995.41 995.91 996.54 996.94 997.19 997.73 998.62 999.16 1000.16 1000.82 1001.39 1002.02 1002.51 1003.04 1003.93 1004.89 1005.85 1006.65 1007.25
991.71 991.28 991.17 991.07 991.16 991.14 991.68 992.12 992.24 992.37 992.54 992.74 993.27 993.79 994.07 994.37 994.56 994.65 994.59 994.84 994.88 994.97 995.26 995.70 996.01 996.59 997.12 997.56 998.02 998.53 999.28 999.73 1000.62 1000.79 1001.78 1002.46 1003.08 1003.72 1004.34 1005.25 1006.02 1006.74 1007.52
Wind_Speed
14 13 12 12 12 11 11 10 9 8 7 7 7 7 7 7 8 8 8 9 9 7 6 6 6 5 6 6 5 4 6 6 9 12 6 4 5 5 5 5 5 3 5
8 9 11 12 13 12 11 10 10 9 8 8 8 7 7 7 8 8 8 7 6 5 4 4 5 3 7 7 6 7 7 8 6 13 6 5 5 4 4 5 4 2 2
6 7 8 8 10 12 12 11 11 10 9 9 9 9 8 7 7 6 5 4 3 3 3 4 5 5 7 7 8 7 7 7 8 7 7 3 4 3 3 6 5 4 2
9 10 10 10 10 10 10 11 10 10 9 10 11 10 9 8 7 6 5 4 4 4 4 5 6 7 8 9 8 9 8 8 8 9 8 6 5 3 5 6 5 4 4
5 6 10 10 10 10 10 12 11 11 10 11 11 10 9 7 6 6 5 4 4 5 6 7 7 9 9 11 9 9 9 8 6 7 10 6 4 2 6 5 6 4 4
8 6 4 6 9 10 12 12 12 13 12 12 12 12 11 7 10 7 4 3 4 5 7 9 9 9 10 12 13 14 14 10 10 10 10 8 8 7 6 6 6 5 4
9 9 7 5 7 9 11 13 13 14 13 12 11 10 9 7 9 7 6 3 4 7 9 10 10 9 8 11 12 14 13 16 18 12 12 8 6 9 8 8 8 5 3
15 12 10 9 7 7 10 12 13 12 13 12 10 9 8 7 9 8 6 5 5 8 10 12 13 13 13 11 13 13 13 9 8 9 12 8 7 7 9 7 8 6 5
18 16 13 12 11 9 10 11 11 11 11 11 11 11 10 9 10 10 7 5 6 10 11 13 13 14 14 11 10 13 12 7 4 2 4 3 5 8 7 8 7 7 5
20 18 17 15 15 13 13 12 10 10 10 9 10 10 10 10 11 11 7 5 8 8 11 13 11 15 14 10 8 11 12 8 8 8 5 5 5 5 8 7 7 6 4
21 20 19 18 17 15 12 12 11 12 11 12 12 11 11 11 10 11 10 7 7 8 10 10 11 11 15 12 10 10 12 7 9 8 7 4 6 5 8 5 6 5 5
23 22 21 18 16 13 15 13 14 13 13 13 13 12 10 9 10 12 12 11 8 10 11 10 11 8 10 12 6 10 5 7 7 6 7 6 5 6 6 6 6 4 3
22 22 21 20 19 17 16 15 14 13 13 13 13 13 11 9 8 13 10 11 11 8 10 12 9 10 12 10 9 7 9 7 8 7 7 7 6 7 8 8 7 7 6
21 19 16 16 17 17 14 14 13 13 13 14 13 13 10 9 8 8 8 9 11 9 11 12 12 11 10 7 2 5 7 8 7 7 7 7 7 8 8 7 8 7 7
17 16 16 13 14 13 14 13 14 14 13 13 13 11 11 11 10 10 10 9 9 10 8 7 6 6 8 5 4 6 5 5 7 6 8 8 8 8 7 7 7 7 7
14 12 12 12 12 12 12 12 6 8 13 10 9 11 11 9 6 11 13 12 13 6 6 8 8 9 9 6 6 6 6 7 8 8 9 9 9 9 8 7 6 7 6
11 10 7 8 7 10 12 13 14 6 3 12 13 14 13 10 15 9 7 7 7 7 7 9 9 9 10 8 10 9 9 8 8 8 8 9 9 9 9 7 7 5 7
9 11 10 10 12 9 9 9 7 8 10 10 8 11 10 10 7 7 8 5 6 6 8 8 8 10 8 10 10 10 9 8 8 7 7 9 9 8 7 9 9 8 6
8 4 10 7 8 7 7 8 7 8 11 10 10 7 11 11 9 10 10 8 12 11 8 10 11 9 7 9 9 9 9 8 10 9 8 9 8 7 7 7 7 7 8
9 11 7 7 8 8 8 8 8 9 7 7 7 9 9 7 7 8 9 11 11 11 9 11 9 6 7 8 7 6 7 7 8 8 10 9 7 7 6 6 7 8 7
6 8 5 4 6 6 6 6 6 7 7 7 8 8 8 9 11 12 12 11 12 12 11 9 6 7 7 7 8 10 10 9 8 10 8 8 11 7 7 7 7 8 9
7 8 6 6 6 8 8 8 8 7 7 9 7 5 7 8 8 8 10 11 10 10 8 7 7 8 9 11 12 11 12 12 12 13 12 11 10 9 8 7 8 7 9
5 6 7 7 7 6 6 6 7 7 9 8 7 6 6 7 7 7 8 9 9 7 7 8 8 8 10 10 10 11 12 12 12 12 11 11 9 10 10 9 8 8 8
4 5 6 6 7 7 7 9 8 8 7 6 6 5 5 7 7 7 7 7 7 7 7 7 8 13 12 11 9 10 10 11 10 11 13 11 10 9 8 9 9 13 11
3 8 8 6 6 7 7 5 6 7 8 7 5 5 5 3 4 4 5 6 6 7 8 9 9 13 13 14 11 13 11 10 12 10 9 12 12 14 12 11 12 10 13
10 9 7 5 6 5 5 5 3 6 6 5 6 6 6 5 3 4 5 7 6 8 10 8 10 12 11 9 11 13 11 12 11 12 12 12 12 12 12 15 17 12 14
Wind_Direction
176 178 172 171 168 165 165 167 169 167 175 185 184 180 185 187 179 178 179 178 191 194 205 221 238 244 253 252 227 213 225 190 247 274 293 299 269 238 221 219 200 181 115
178 185 184 179 168 169 171 170 170 175 181 182 184 188 187 184 179 183 178 171 180 192 209 231 268 264 257 252 242 217 226 213 223 272 290 272 247 233 229 229 209 185 170
179 196 196 195 192 185 174 171 175 176 187 186 186 188 191 188 185 189 197 187 200 239 278 277 284 277 272 267 248 244 230 225 197 233 241 203 230 213 224 229 218 198 155
201 209 203 201 200 201 182 176 179 184 197 200 198 195 193 189 193 196 201 216 230 258 280 281 286 283 281 277 268 248 243 227 207 224 240 243 211 178 220 229 203 214 207
279 219 214 213 206 200 208 189 185 188 194 202 196 192 185 184 190 186 195 215 241 264 256 257 267 272 270 271 279 269 246 234 220 233 239 239 184 168 219 203 229 197 192
341 344 279 242 226 211 205 206 187 183 181 182 193 181 174 186 144 170 192 224 268 279 284 282 284 276 266 248 258 248 251 251 248 241 238 225 214 216 204 200 195 198 202
299 302 302 292 232 218 212 204 197 184 173 184 187 184 183 185 171 183 186 263 286 291 288 285 283 280 266 277 272 254 239 232 238 253 240 217 201 207 187 192 197 192 194
278 273 277 275 260 220 204 196 190 188 176 178 186 189 196 208 194 206 194 255 270 280 277 274 272 274 274 276 283 283 279 265 226 227 233 227 210 167 189 194 185 146 133
252 253 247 243 240 227 223 200 193 188 186 183 189 197 208 226 205 214 217 265 290 278 272 268 264 265 270 255 275 280 280 263 37 303 267 256 193 154 185 165 169 182 163
249 245 243 241 238 226 221 221 206 201 204 202 212 218 215 227 195 206 214 273 274 275 272 269 245 251 274 258 261 276 279 253 178 174 163 110 154 137 195 208 172 195 167
248 241 237 236 236 233 225 213 212 207 222 219 224 229 227 219 222 197 198 243 260 267 265 260 263 234 244 259 229 260 261 237 181 172 148 138 113 192 197 185 200 203 187
252 239 236 229 227 226 226 222 220 216 215 223 228 232 228 225 215 192 203 216 242 256 265 265 265 269 282 272 245 241 205 180 179 164 153 147 136 212 180 173 176 157 103
239 235 235 232 223 222 229 224 226 218 220 220 227 230 227 220 222 204 214 223 222 241 255 261 306 306 294 269 237 232 171 188 173 172 171 148 156 200 156 163 147 138 130
236 231 223 218 216 220 220 220 219 217 215 225 226 226 224 226 233 242 232 230 224 219 246 253 256 260 268 280 150 189 196 193 188 172 154 138 153 163 174 161 157 170 172
224 223 217 205 205 212 221 220 215 216 215 219 216 216 218 228 229 229 247 247 243 230 229 238 248 234 239 199 204 185 196 173 180 161 155 147 164 174 162 167 167 176 184
213 208 212 216 207 202 208 214 215 230 170 206 197 209 224 244 212 203 225 241 251 236 210 234 238 241 236 200 195 188 190 187 185 170 162 166 170 174 164 170 162 187 181
199 196 196 203 198 201 206 211 214 178 170 195 198 194 212 236 212 211 206 222 213 163 225 234 242 241 232 206 199 192 187 183 164 172 174 172 177 174 168 161 173 181 172
171 189 188 192 196 191 171 174 183 184 192 203 205 216 211 222 182 148 160 151 213 213 236 228 241 235 224 212 192 191 179 163 163 167 169 176 170 158 163 178 172 176 159
163 151 160 176 191 185 181 182 185 203 219 220 212 180 209 219 205 185 167 227 239 230 220 236 238 238 213 207 193 179 163 165 168 156 171 163 150 150 176 176 154 129 128
151 168 191 165 163 170 172 178 190 200 201 205 196 206 184 178 202 207 209 219 226 238 237 235 234 210 198 184 163 143 155 160 153 158 160 155 151 159 155 141 149 156 150
142 169 181 163 171 175 174 180 183 182 188 195 209 209 199 199 212 215 213 214 224 231 232 230 197 192 187 175 166 168 158 154 159 159 157 165 161 149 162 155 175 169 150
159 167 168 157 169 187 198 193 195 194 207 212 216 199 170 209 231 222 227 224 224 224 218 191 188 186 186 182 174 166 160 155 154 162 165 158 144 140 140 150 154 148 136
158 174 188 192 195 191 201 187 191 194 217 206 210 209 180 212 217 213 209 211 212 181 169 173 174 185 180 164 152 156 154 155 153 151 144 141 140 147 155 143 141 137 138
210 205 199 203 208 206 200 190 190 207 222 206 206 213 214 207 212 179 160 156 149 167 162 166 178 172 153 152 152 153 151 143 140 142 140 142 133 127 138 128 127 124 119
123 193 206 212 216 214 203 211 199 200 199 204 194 142 105 88 91 117 131 139 147 152 155 160 162 150 147 146 147 130 114 114 130 119 115 127 135 139 126 120 120 123 126
28 33 43 50 56 74 157 165 161 170 167 162 144 124 132 114 104 120 128 132 142 141 135 136 126 123 113 103 118 116 114 114 115 112 123 126 128 126 125 127 128 123 125